Weather History for South Lake Tahoe, CA

Change the Weather History Date:

Monday, December 24, 2012

  Actual Average Record
Temperature  
Mean Temperature 26 °F 29 °F  
Max Temperature 36 °F 43 °F 50 °F (2010)
Min Temperature 16 °F 16 °F -13 °F (1970)
Degree Days  
Heating Degree Days 39 36  
Month to date heating degree days 781 840  
Since 1 July heating degree days 2539 2933  
Cooling Degree Days 0 0  
Month to date cooling degree days 0 0  
Year to date cooling degree days 30 31  
Moisture  
Dew Point 19 °F    
Average Humidity 64    
Maximum Humidity 88    
Minimum Humidity 40    
Precipitation  
Precipitation 0.01 in - 3.00 in (1964)
Month to date precipitation 4.80  
Year to date precipitation 20.93  
Sea Level Pressure  
Sea Level Pressure 30.00 in    
Wind  
Wind Speed 8 mph (South)    
Max Wind Speed 20 mph    
Max Gust Speed 30 mph    
Visibility 6 miles    
Events Snow    
T = Trace of Precipitation, MM = Missing Value Source: NWS Daily Summary

Daily Weather History Graph

Daily Weather History Graph

Search for Another Location

Airport:

Trip Planner

Search our weather history database for the weather conditions in past years. The results will help you decide how hot, cold, wet, or windy it might be!

Date:

Astronomy

Dec. 24, 2012 Rise Set
Actual Time 7:16 AM PST 4:43 PM PST
Civil Twilight 6:46 AM PST 5:13 PM PST
Nautical Twilight 6:13 AM PST 5:46 PM PST
Astronomical Twilight 5:40 AM PST 6:19 PM PST
Moon 2:13 PM PST (12/24) 4:00 AM PST (12/24)
Length of Visible Light 10h 26m
Length of Day
9h 26m
Waxing Gibbous, 89% of the Moon is Illuminated
Dec 24
Waxing Gibbous
Dec 28
Full
Jan 4
Last Quarter
Jan 11
New
Jan 18
First Quarter

Hourly Weather History & Observations

Time (PST) Temp. Windchill Dew Point Humidity Pressure Visibility Wind Dir Wind Speed Gust Speed Precip Events Conditions
12:02 AM 32.0 °F 21.6 °F 24.8 °F 75% 29.86 in 1.8 mi SSW 15.0 mph 26.5 mph 0.00 in Snow Light Snow
12:16 AM 32.0 °F 28.7 °F 24.8 °F 75% 29.86 in 3.0 mi Variable 3.5 mph 17.3 mph 0.00 in Snow Light Snow
12:23 AM 32.0 °F 22.5 °F 23.0 °F 69% 29.86 in 9.0 mi SSW 12.7 mph 21.9 mph 0.00 in   Scattered Clouds
12:36 AM 32.0 °F 22.5 °F 21.2 °F 64% 29.87 in 4.0 mi SW 12.7 mph 21.9 mph 0.00 in Snow Light Snow
12:45 AM 32.0 °F 22.1 °F 23.0 °F 69% 29.87 in 1.8 mi South 13.8 mph 21.9 mph 0.00 in Snow Light Snow
12:53 AM 30.0 °F 20.0 °F 24.1 °F 79% 29.86 in 1.8 mi South 12.7 mph 21.9 mph 0.00 in Snow Light Snow
12:57 AM 30.2 °F 20.8 °F 24.8 °F 80% 29.87 in 3.0 mi SSW 11.5 mph 21.9 mph 0.00 in Snow Light Snow
1:03 AM 32.0 °F 25.6 °F 23.0 °F 69% 29.87 in 8.0 mi South 6.9 mph 21.9 mph 0.00 in   Mostly Cloudy
1:25 AM 30.2 °F 21.9 °F 23.0 °F 75% 29.88 in 4.0 mi SSW 9.2 mph 18.4 mph 0.00 in Snow Light Snow
1:32 AM 30.2 °F 22.6 °F 23.0 °F 75% 29.88 in 5.0 mi SSW 8.1 mph 17.3 mph 0.00 in Snow Light Snow
1:53 AM 30.9 °F 20.7 °F 23.0 °F 72% 29.88 in 10.0 mi South 13.8 mph 21.9 mph 0.00 in   Scattered Clouds
2:53 AM 33.1 °F 25.5 °F 19.9 °F 59% 29.88 in 10.0 mi SSW 9.2 mph 18.4 mph 0.01 in   Mostly Cloudy
3:21 AM 30.2 °F 20.2 °F 23.0 °F 75% 29.90 in 4.0 mi South 12.7 mph 20.7 mph 0.00 in Snow Light Snow
3:36 AM 28.4 °F 20.4 °F 23.0 °F 80% 29.90 in 5.0 mi South 8.1 mph - 0.00 in Snow Light Snow
3:39 AM 28.4 °F 19.7 °F 24.8 °F 86% 29.90 in 2.5 mi South 9.2 mph - 0.00 in Snow Light Snow
3:45 AM 28.4 °F 22.2 °F 24.8 °F 86% 29.90 in 1.5 mi South 5.8 mph - 0.00 in Snow Light Snow
3:53 AM 28.9 °F 23.9 °F 25.0 °F 85% 29.89 in 2.0 mi SSE 4.6 mph - 0.00 in Snow Light Snow
3:59 AM 28.4 °F 19.7 °F 23.0 °F 80% 29.90 in 4.0 mi South 9.2 mph 16.1 mph 0.00 in Snow Light Snow
4:06 AM 28.4 °F 21.2 °F 21.2 °F 74% 29.90 in 9.0 mi SSW 6.9 mph 19.6 mph 0.00 in   Mostly Cloudy
4:51 AM 28.4 °F 18.0 °F 19.4 °F 69% 29.91 in 8.0 mi South 12.7 mph 21.9 mph 0.00 in Snow Light Snow
4:53 AM 28.9 °F 18.6 °F 21.0 °F 72% 29.91 in 8.0 mi SSW 12.7 mph - 0.00 in Snow Light Snow
5:01 AM 28.4 °F 19.7 °F 19.4 °F 69% 29.92 in 9.0 mi South 9.2 mph - 0.00 in   Partly Cloudy
5:53 AM 27.0 °F 14.7 °F 18.0 °F 69% 29.94 in 10.0 mi South 16.1 mph - 0.00 in   Clear
6:53 AM 27.0 °F 16.1 °F 18.0 °F 69% 29.96 in 10.0 mi SSE 12.7 mph - N/A   Clear
7:53 AM 25.0 °F 19.3 °F 16.0 °F 69% 30.02 in 10.0 mi SE 4.6 mph 18.4 mph N/A   Clear
8:53 AM 23.0 °F 13.9 °F 16.0 °F 74% 30.07 in 10.0 mi South 8.1 mph - N/A   Clear
9:53 AM 28.0 °F 22.8 °F 18.0 °F 66% 30.08 in 10.0 mi South 4.6 mph - N/A   Clear
10:53 AM 30.0 °F - 17.1 °F 59% 30.09 in 10.0 mi Calm Calm - N/A   Clear
11:53 AM 35.1 °F - 15.1 °F 44% 30.04 in 10.0 mi Calm Calm - N/A   Clear
12:53 PM 36.0 °F - 14.0 °F 41% 30.05 in 10.0 mi Calm Calm - N/A   Clear
1:53 PM 36.0 °F 31.1 °F 17.1 °F 46% 30.04 in 10.0 mi NNE 5.8 mph - N/A   Clear
2:53 PM 34.0 °F 29.8 °F 18.0 °F 52% 30.05 in 10.0 mi NNE 4.6 mph - N/A   Clear
3:53 PM 27.0 °F - 21.9 °F 81% 30.11 in 10.0 mi Calm Calm - N/A   Clear
4:53 PM 23.0 °F - 19.0 °F 85% 30.14 in 2.0 mi Calm Calm - N/A   Clear
5:00 PM 23.0 °F - 17.6 °F 80% 30.08 in 1.8 mi Calm Calm - N/A   Haze
5:02 PM 23.0 °F - 17.6 °F 80% 30.08 in 5.0 mi Calm Calm - N/A   Haze
5:25 PM 19.4 °F - 15.8 °F 86% 30.09 in 2.5 mi Calm Calm - N/A   Clear
5:35 PM 21.2 °F - 17.6 °F 86% 30.09 in 5.0 mi Calm Calm - N/A   Haze
5:53 PM 19.9 °F - 16.0 °F 85% 30.17 in 6.0 mi Calm Calm - N/A   Clear
6:02 PM 19.4 °F - 14.0 °F 80% 30.10 in 2.5 mi Calm Calm - N/A   Haze
6:08 PM 19.4 °F - 14.0 °F 80% 30.10 in 0.8 mi Calm Calm - N/A   Haze
6:18 PM 19.4 °F - 15.8 °F 86% 30.09 in 2.0 mi Calm Calm - N/A   Clear
6:26 PM 19.4 °F - 15.8 °F 86% 30.09 in 5.0 mi Calm Calm - N/A   Clear
6:50 PM 15.8 °F 10.2 °F 12.2 °F 86% 30.10 in 2.5 mi South 3.5 mph - N/A   Clear
6:53 PM 18.0 °F 11.1 °F 12.9 °F 81% 30.18 in 2.5 mi South 4.6 mph - N/A   Haze
7:00 PM 17.6 °F - 14.0 °F 86% 30.10 in 5.0 mi Calm Calm - N/A   Clear
7:53 PM 19.0 °F 12.3 °F 14.0 °F 81% 30.20 in 10.0 mi SSW 4.6 mph - N/A   Clear
8:53 PM 19.0 °F 13.9 °F 14.0 °F 81% 30.20 in 10.0 mi SSW 3.5 mph - N/A   Scattered Clouds
9:53 PM 19.0 °F - 14.0 °F 81% 30.16 in 10.0 mi Calm Calm - N/A   Clear
10:53 PM 19.9 °F - 15.1 °F 81% 30.16 in 10.0 mi Calm Calm - N/A   Overcast
11:53 PM 19.9 °F - 15.1 °F 81% 30.13 in 10.0 mi Calm Calm - N/A   Mostly Cloudy